CDT,Max TemperatureF,Mean TemperatureF,Min TemperatureF,Max Dew PointF,MeanDew PointF,Min DewpointF,Max Humidity, Mean Humidity, Min Humidity, Max Sea Level PressureIn, Mean Sea Level PressureIn, Min Sea Level PressureIn, Max VisibilityMiles, Mean VisibilityMiles, Min VisibilityMiles, Max Wind SpeedMPH, Mean Wind SpeedMPH, Max Gust SpeedMPH,PrecipitationIn, CloudCover, Events, WindDirDegrees
2012-10-1,74,68,62,75,64,58,100,94,72,29.78,29.64,29.52,10.0,9.8,5.0,15,7,17,0.03,8,Rain-Thunderstorm,275
2012-10-2,77,67,57,67,59,50,100,81,39,30.01,29.89,29.77,10.0,8.9,3.0,8,2,,0.00,1,,287
2012-10-3,82,68,55,68,60,56,100,78,43,30.15,30.07,30.01,10.0,8.7,3.0,14,2,,0.00,2,,154
2012-10-4,84,72,59,70,62,54,100,78,36,30.25,30.19,30.15,10.0,7.9,1.2,6,1,,0.00,0,Thunderstorm,57
2012-10-5,85,72,59,69,62,54,100,78,36,30.18,30.10,30.02,10.0,9.1,4.0,6,1,,0.00,0,Thunderstorm,109
2012-10-6,84,71,58,69,62,58,100,79,47,30.05,30.02,29.97,10.0,9.4,7.0,10,2,,0.00,2,,3
2012-10-7,65,58,51,58,54,50,100,84,63,30.16,30.11,30.05,10.0,10.0,10.0,14,9,20,0.00,6,,12
2012-10-8,69,59,49,56,49,45,100,79,47,30.19,30.13,30.09,10.0,10.0,10.0,13,5,18,0.00,1,,13
2012-10-9,75,60,45,62,51,45,100,82,41,30.18,30.11,30.04,10.0,9.8,7.0,5,1,,0.00,0,,18
2012-10-10,82,67,52,69,59,52,100,83,47,30.19,30.14,30.08,10.0,9.2,4.0,10,1,,0.00,1,,354
2012-10-11,83,70,57,71,62,57,100,83,44,30.26,30.20,30.17,10.0,7.0,0.5,8,1,,0.00,0,Fog,69
2012-10-12,83,69,55,69,61,56,100,83,44,30.29,30.22,30.19,10.0,5.9,0.2,7,1,,0.00,3,Fog,90
2012-10-13,85,70,57,72,64,58,100,79,46,30.26,30.17,30.11,10.0,6.5,0.2,13,3,20,0.00,4,Fog,168
2012-10-14,86,74,63,75,67,64,100,82,48,30.17,30.07,30.00,10.0,6.9,0.2,9,2,17,0.00,4,Fog,203
2012-10-15,81,68,55,72,63,52,100,80,37,30.05,30.00,29.95,10.0,8.6,0.2,13,3,16,0.00,1,Fog-Thunderstorm,7
2012-10-16,78,63,48,61,52,42,100,75,28,30.02,29.96,29.88,10.0,9.9,7.0,8,1,,0.00,0,,117
2012-10-17,81,66,52,72,62,53,100,82,52,29.90,29.83,29.76,10.0,10.0,10.0,14,4,20,0.00,4,,176
2012-10-18,79,66,54,73,57,36,100,72,21,29.94,29.84,29.74,10.0,9.7,1.2,16,6,20,0.88,3,Rain-Thunderstorm,16
2012-10-19,77,61,45,54,44,31,100,68,18,29.97,29.92,29.87,10.0,10.0,10.0,15,2,20,0.00,0,,286
2012-10-20,79,60,42,58,46,36,100,75,22,30.04,29.98,29.94,10.0,9.8,2.5,6,0,,0.00,0,,307
2012-10-21,80,63,46,61,52,46,100,78,32,30.13,30.08,30.01,10.0,9.8,2.0,7,1,,0.00,0,,159
2012-10-22,82,65,48,63,55,49,100,76,34,30.16,30.11,30.05,10.0,9.6,3.0,12,2,,0.00,0,,133
2012-10-23,84,68,53,71,60,53,100,80,44,30.12,30.07,30.03,10.0,7.2,0.2,7,1,,0.00,3,Fog,129
2012-10-24,83,70,58,70,61,57,100,84,42,30.13,30.06,30.00,10.0,6.0,0.2,8,1,,0.00,4,Fog,96
2012-10-25,82,70,59,68,61,55,100,82,40,30.04,29.99,29.94,10.0,6.9,0.2,6,1,,0.00,3,Fog,348
2012-10-26,83,68,54,71,61,48,100,81,41,30.06,29.99,29.92,10.0,6.1,0.2,18,4,23,0.01,5,Fog-Thunderstorm,3
2012-10-27,54,49,44,48,43,40,100,79,64,30.07,30.04,30.00,10.0,10.0,10.0,16,11,23,0.00,5,,360
2012-10-28,64,52,39,43,36,29,100,64,28,30.16,30.08,30.03,10.0,10.0,10.0,18,7,26,0.00,0,,342
2012-10-29,62,50,37,38,33,26,91,59,25,30.21,30.15,30.08,10.0,10.0,10.0,20,6,26,0.00,0,,350
2012-10-30,67,50,32,50,37,29,100,74,26,30.12,30.07,30.00,10.0,10.0,10.0,13,2,17,0.00,0,,316
2012-10-31,76,58,41,62,50,41,100,81,36,30.08,30.02,29.96,10.0,10.0,10.0,14,2,20,0.00,6,,270